St. Johns, AZ

7:01 PM MST on October 21, 2019 (GMT -0700)
Saint Johns Industrial

Weather History for KSJN - August, 2019

Change the Weather History Date:

Thursday, August 1, 2019

  Actual Average (KLSB) Record (KLSB)
Temperature  
Mean Temperature 66 °F -  
Max Temperature 81 °F 94 °F 91 °F (2015)
Min Temperature 52 °F 64 °F 64 °F (2013)
Cooling Degree Days 2    
Growing Degree Days 16 (Base 50)    
Moisture  
Dew Point 57 °F    
Average Humidity 64    
Maximum Humidity 93    
Minimum Humidity 35    
Precipitation  
Precipitation 0.01 in - - ()
Sea Level Pressure  
Sea Level Pressure 30.01 in    
Wind  
Wind Speed 2 mph (South)    
Max Wind Speed 13 mph    
Max Gust Speed -    
Visibility 10 miles    
Events Rain , Thunderstorm    
Averages and records for this station are not official NWS values.
T = Trace of Precipitation, MM = Missing Value Source: NWS Daily Summary

Daily Weather History Graph

Daily Weather History Graph

Search for Another Location

Airport or City:

Astronomy

Aug. 01, 2019 Rise Set
Actual Time 5:27 AM MST 7:19 PM MST
Civil Twilight 5:00 AM MST 7:46 PM MST
Nautical Twilight 4:26 AM MST 8:20 PM MST
Astronomical Twilight 3:51 AM MST 8:55 PM MST
Moon 5:57 AM MST (8/1) 8:10 PM MST (8/1)
Length of Visible Light 14h 46m
Length of Day
13h 51m
New Moon, 1% of the Moon is Illuminated
Aug 1
New Moon
Aug 7
First Quarter
Aug 15
Full
Aug 23
Last Quarter
Aug 30
New

Hourly Weather History & Observations

Time (MST) Temp. Heat Index Dew Point Humidity Pressure Visibility Wind Dir Wind Speed Gust Speed Precip Events Conditions
12:54 AM 64.0 °F - 62.1 °F 93% 29.96 in 10.0 mi Calm Calm - N/A   Clear
1:54 AM 64.0 °F - 61.0 °F 90% 29.99 in 10.0 mi Calm Calm - N/A   Clear
2:54 AM 63.0 °F - 61.0 °F 93% 29.99 in 10.0 mi Calm Calm - N/A   Clear
3:54 AM 63.0 °F - 60.1 °F 90% 30.01 in 10.0 mi Calm Calm - N/A   Scattered Clouds
4:54 AM 62.1 °F - 59.0 °F 90% 30.01 in 10.0 mi Calm Calm - N/A   Clear
5:54 AM 61.0 °F - 57.0 °F 87% 30.05 in 10.0 mi Calm Calm - N/A   Clear
6:54 AM 64.0 °F - 60.1 °F 87% 30.06 in 10.0 mi Calm Calm - N/A   Clear
7:54 AM 69.1 °F - 59.0 °F 70% 30.06 in 10.0 mi Calm Calm - N/A   Clear
8:54 AM 73.0 °F - 59.0 °F 61% 30.04 in 10.0 mi Calm Calm - N/A   Clear
9:54 AM 75.9 °F - 60.1 °F 58% 30.04 in 10.0 mi Calm Calm - N/A   Clear
10:54 AM 78.1 °F - 57.9 °F 50% 30.02 in 10.0 mi Variable 3.5 mph - N/A   Clear
11:54 AM 81.0 °F 81.0 °F 57.0 °F 44% 30.00 in 10.0 mi Variable 4.6 mph - N/A   Partly Cloudy
12:54 PM 80.1 °F 80.4 °F 57.0 °F 45% 29.99 in 10.0 mi Variable 5.8 mph - N/A   Partly Cloudy
1:54 PM 80.1 °F 80.2 °F 55.9 °F 43% 29.97 in 10.0 mi Calm Calm - N/A   Clear
2:54 PM 81.0 °F 80.8 °F 55.9 °F 42% 29.95 in 10.0 mi Calm Calm - N/A   Clear
3:54 PM 84.0 °F 82.9 °F 55.0 °F 37% 29.92 in 10.0 mi Calm Calm - N/A   Clear
4:54 PM 82.9 °F 81.9 °F 54.0 °F 37% 29.91 in 10.0 mi ESE 3.5 mph - N/A   Clear
5:54 PM 81.0 °F 80.8 °F 55.9 °F 42% 29.92 in 10.0 mi South 11.5 mph - N/A Thunderstorm Partly Cloudy
6:54 PM 73.9 °F - 55.0 °F 52% 29.97 in 10.0 mi West 11.5 mph - N/A Thunderstorm Mostly Cloudy
7:34 PM 72.0 °F - 59.0 °F 64% 30.24 in 10.0 mi SW 12.7 mph - 0.00 in Rain Light Rain
7:54 PM 70.0 °F - 57.0 °F 63% 29.98 in 10.0 mi SSW 12.7 mph - 0.00 in Rain , Thunderstorm Light Rain
8:33 PM 69.1 °F - 59.0 °F 70% 30.25 in 10.0 mi South 8.1 mph - 0.01 in Rain Light Rain
8:54 PM 70.0 °F - 59.0 °F 68% 29.96 in 10.0 mi South 6.9 mph - 0.01 in Rain Light Rain
9:54 PM 70.0 °F - 57.0 °F 63% 29.96 in 10.0 mi South 3.5 mph - 0.00 in   Partly Cloudy
10:54 PM 69.1 °F - 57.9 °F 68% 29.96 in 10.0 mi Calm Calm - N/A   Clear
11:54 PM 64.9 °F - 59.0 °F 81% 29.96 in 10.0 mi South 5.8 mph - N/A   Clear